Location: Newark
(53.3503°N, 9.6158°W)
Time: 19:24:14
(UTC+00:00)

Envisat - Pass Details

Date: 27 October 2019
Orbit: 764 x 766 km, 98.1° (Epoch: 12 November)

Event Time Altitude Azimuth Distance (km) Brightness Sun altitude
Rises 18:11:34 0° 157° (SSE) 3,223 6.1 -8.7°
Reaches altitude 10° 18:13:52 10° 155° (SSE) 2,301 5.3 -9.0°
Maximum altitude 18:18:55 74° 72° (ENE) 802 2.9 -9.8°
Drops below altitude 10° 18:24:01 10° 348° (NNW) 2,316 5.6 -10.5°
Sets 18:26:20 0° 347° (NNW) 3,247 6.3 -10.9°
